sat.trackr.live / text

‹ back to catalog

COSMOS 2502

NORAD 40358 · 2014-086A

PAYLOAD ACTIVE UNKNOWN

§ Identity

Operator
Country
CIS
Launch date
2014-12-25
Launch site
PLMSC
Launch vehicle
Mass (kg)
RCS (m²)
12.93

External: N2YO · Heavens-Above · Gunter

§ Orbital elements

Epoch: 2026-09-20T03:53:21.520896Z

Period
103.02 min
Inclination
67.1521°
Eccentricity
0.0005736
Mean motion
13.97831922 rev/d
Perigee alt
897.1 km
Apogee alt
905.5 km
Semi-major
7,279.4 km
B*
-7.3903e-5
RAAN
136.0168°
Arg perigee
244.5301°
Mean anomaly
115.5191°
Rev number
59,722

§ Raw data

COSMOS 25021 40358U 14086A   26263.16205464 -.00000180  00000+0 -73903-4 0  99922 40358  67.1521 136.0168 0005736 244.5301 115.5191 13.97831922597222

JSON: /api/v1/satellites/40358 · /tle

For live sub-satellite position, see the globe view (requires WebGL).

§ Visibility from observer

Set your observer location to see the next 7 days of passes ≥ 10°. The values pass through the URL so the page stays shareable.

No JS? Fill the form by hand. The geolocation button needs JavaScript.